TimeCST,TemperatureF,Dew PointF,Humidity,Sea Level PressureIn,VisibilityMPH,Wind Direction,Wind SpeedMPH,Gust SpeedMPH,PrecipitationIn,Events,Conditions,WindDirDegrees,DateUTC
12:51 AM,46.9,19.0,33,30.19,10.0,North,11.5,-,N/A,,Partly Cloudy,360,2013-02-28 06:51:00
1:51 AM,46.0,19.9,35,30.20,10.0,North,9.2,-,N/A,,Clear,10,2013-02-28 07:51:00
2:51 AM,46.9,21.9,37,30.19,10.0,North,11.5,-,N/A,,Clear,360,2013-02-28 08:51:00
3:51 AM,46.9,25.0,42,30.22,10.0,North,9.2,-,N/A,,Scattered Clouds,10,2013-02-28 09:51:00
4:51 AM,45.0,27.0,49,30.23,10.0,NNW,5.8,-,N/A,,Scattered Clouds,340,2013-02-28 10:51:00
5:51 AM,45.0,28.0,52,30.25,10.0,NNE,4.6,-,N/A,,Scattered Clouds,20,2013-02-28 11:51:00
6:51 AM,45.0,28.0,52,30.27,10.0,NNE,5.8,-,N/A,,Overcast,30,2013-02-28 12:51:00
7:51 AM,46.4,28.4,50,30.31,10.0,NNE,5.8,-,N/A,,Mostly Cloudy,30,2013-02-28 13:51:00
8:51 AM,46.9,28.0,48,30.30,10.0,NNE,10.4,-,N/A,,Mostly Cloudy,30,2013-02-28 14:51:00
9:51 AM,50.0,28.0,43,30.31,10.0,NNE,8.1,-,N/A,,Mostly Cloudy,30,2013-02-28 15:51:00
10:51 AM,54.0,28.0,37,30.30,10.0,North,17.3,23.0,N/A,,Mostly Cloudy,10,2013-02-28 16:51:00
11:51 AM,55.0,27.0,34,30.29,10.0,North,12.7,21.9,N/A,,Mostly Cloudy,360,2013-02-28 17:51:00
12:51 PM,57.9,25.0,28,30.25,10.0,North,11.5,20.7,N/A,,Mostly Cloudy,360,2013-02-28 18:51:00
1:51 PM,61.0,23.0,23,30.20,10.0,NNW,11.5,-,N/A,,Mostly Cloudy,330,2013-02-28 19:51:00
2:51 PM,60.1,23.0,24,30.18,10.0,NNW,9.2,-,N/A,,Mostly Cloudy,340,2013-02-28 20:51:00
3:51 PM,63.0,23.0,22,30.17,10.0,NNE,11.5,17.3,N/A,,Partly Cloudy,20,2013-02-28 21:51:00
4:51 PM,62.1,19.9,20,30.17,10.0,NNE,12.7,18.4,N/A,,Mostly Cloudy,30,2013-02-28 22:51:00
5:51 PM,60.1,21.0,22,30.18,10.0,North,5.8,-,N/A,,Mostly Cloudy,10,2013-02-28 23:51:00
6:51 PM,55.9,21.9,27,30.19,10.0,NE,4.6,-,N/A,,Mostly Cloudy,40,2013-03-01 00:51:00
7:51 PM,53.1,21.9,30,30.21,10.0,Calm,Calm,-,N/A,,Partly Cloudy,0,2013-03-01 01:51:00
8:51 PM,50.0,26.1,39,30.22,10.0,WNW,3.5,-,N/A,,Scattered Clouds,290,2013-03-01 02:51:00
9:51 PM,46.0,27.0,47,30.23,10.0,NW,4.6,-,N/A,,Partly Cloudy,310,2013-03-01 03:51:00
10:51 PM,44.1,27.0,51,30.23,10.0,NW,4.6,-,N/A,,Partly Cloudy,310,2013-03-01 04:51:00
11:51 PM,39.9,28.0,63,30.22,10.0,NW,5.8,-,N/A,,Partly Cloudy,310,2013-03-01 05:51:00